Station SDRT2 - 8773037 - Seadrift, TX Image indicating link to RSS feed of recent meteorological observations for station SDRT2


Conditions at SDRT2 as of
(11:48 pm CDT on 06/12/2024)
0448 GMT on 06/13/2024:
     

Click on the graph icon in the table below to see a time series plot of the last five days of that observation.

5-day plot - Wind Direction Wind Direction (WDIR): NE ( 40 deg true )
5-day plot - Wind Speed Wind Speed (WSPD): 1.9 kts
5-day plot - Wind Gust Wind Gust (GST): 2.9 kts
5-day plot - Atmospheric Pressure Atmospheric Pressure (PRES):29.87 in
5-day plot - Air Temperature Air Temperature (ATMP): 81.9 °F
5-day plot - Water Temperature Water Temperature (WTMP): 89.4 °F
5-day plot - Wind Speed at 10 Meters Wind Speed at 10 meters (WSPD10M): 1.9 kts
5-day plot - Wind Speed at 20 Meters Wind Speed at 20 meters (WSPD20M): 3.9 kts
5-day plot -  Wind Speed, Wind Gust and Atmospheric Pressure Combined plot of Wind Speed, Gust, and Air Pressure
Previous observations
TIME
(CDT)
5-day plot - Wind Direction
WDIR
 
5-day plot - Wind Speed
WSPD
kts
5-day plot - Wind Gust
GST
kts
5-day plot - Wave Height
WVHT
ft
5-day plot - Dominant Wave Period
DPD
sec
5-day plot - Average Wave Period
APD
sec
5-day plot - Mean Wave Direction
MWD
 
5-day plot - Atmospheric Pressure
PRES
in
5-day plot - Pressure Tendency
PTDY
in
5-day plot - Air Temperature
ATMP
°F
5-day plot - Water Temperature
WTMP
°F
5-day plot - Dew Point
DEWP
°F
5-day plot - Salinity
SAL
psu
5-day plot - Visibility
VIS
nmi
5-day plot - Tide (above MLLW)
TIDE
ft
2024-06-12 11:42 pm NE 1.9 4.1----29.87- 82.0 89.4----
2024-06-12 11:36 pm NE 1.9 2.9----29.87- 82.0 89.4----
2024-06-12 11:30 pmENE 1.9 2.9----29.87- 82.0 89.4----
2024-06-12 11:24 pmENE 1.9 2.9----29.87- 82.2 89.6----
2024-06-12 11:18 pmENE 1.9 2.9----29.87- 82.0 89.6----
2024-06-12 11:12 pm NE 1.9 4.1----29.87- 81.7 89.6----
2024-06-12 11:06 pm NE 1.9 2.9----29.87- 81.7 89.6----
2024-06-12 11:00 pmENE 1.9 4.1----29.86- 81.9 89.6----
2024-06-12 10:54 pmENE 2.9 4.1----29.87- 81.9 89.6----
2024-06-12 10:48 pmENE 2.9 4.1----29.87-- 89.6----
2024-06-12 10:42 pm E 2.9 4.1----29.86-- 89.8----
2024-06-12 10:36 pm E 1.9 2.9----29.86-- 89.8----
2024-06-12 10:30 pm E 1.9 4.1------------
2024-06-12 10:24 pm E 2.9 4.1------------
2024-06-12 10:18 pmENE 2.9 5.1----29.86-- 89.8----
2024-06-12 10:12 pmENE 2.9 5.1----29.85-- 89.8----
2024-06-12 10:06 pmENE 4.1 5.1----29.85-- 89.8----
2024-06-12 10:00 pmENE 4.1 5.1----29.85+0.00 82.6 90.0----
2024-06-12 09:54 pmENE 4.1 5.1----29.85- 82.8 90.0----
2024-06-12 09:48 pmENE 4.1 5.1----29.85- 82.8 90.0----
2024-06-12 09:42 pmENE 2.9 5.1----29.85- 82.6 90.0----
2024-06-12 09:36 pm NE 4.1 6.0----29.85- 82.8 90.0----
2024-06-12 09:30 pmENE 5.1 5.1----29.85- 82.8 90.0----
2024-06-12 09:24 pmENE 4.1 5.1----29.85- 82.8 90.0----
2024-06-12 09:18 pm E 4.1 5.1----29.85- 83.1-----
2024-06-12 09:12 pm E 2.9 5.1----29.85- 83.5-----
2024-06-12 09:06 pmENE 2.9 4.1----29.85- 83.5-----
2024-06-12 09:00 pmENE 4.1 5.1------------
2024-06-12 08:54 pm NE 2.9 4.1------------
2024-06-12 08:48 pm NE 2.9 4.1----29.86-- 90.1----
2024-06-12 08:42 pm NE 2.9 4.1----29.86-- 90.1----
2024-06-12 08:36 pmENE 1.9 2.9----29.85-- 90.1----
2024-06-12 08:30 pm E 1.9 4.1----29.85- 84.6 90.3----
2024-06-12 08:24 pm E 2.9 4.1----29.85- 84.9 90.3----
2024-06-12 08:18 pm E 2.9 4.1----29.85-- 90.3----
2024-06-12 08:12 pm E 2.9 4.1----29.85-- 90.3----
2024-06-12 08:06 pmESE 2.9 2.9----29.85-- 90.3----
2024-06-12 08:00 pmESE 2.9 4.1------- 90.3----
2024-06-12 07:54 pm E 2.9 4.1------- 90.3----
2024-06-12 07:48 pm E 2.9 4.1----29.85-- 90.3----
2024-06-12 07:42 pm E 2.9 5.1----29.85-- 90.5----
2024-06-12 07:36 pm E 4.1 6.0----29.85-- 90.5----
2024-06-12 07:30 pm E 2.9 6.0----29.85-- 90.5----
2024-06-12 07:24 pmENE 4.1 5.1----29.85-- 90.5----
2024-06-12 07:18 pm NE 2.9 5.1----29.85- 85.6 90.5----
2024-06-12 07:12 pm NE 4.1 6.0----29.85- 85.5 90.5----
2024-06-12 07:06 pm NE 5.1 7.0----29.85- 85.5 90.5----
2024-06-12 07:00 pm NE 5.1 7.0----29.85-0.02- 90.5----
2024-06-12 06:54 pm NE 5.1 8.0----29.85-- 90.5----
2024-06-12 06:48 pmNNE 5.1 7.0----29.85-- 90.5----
2024-06-12 06:42 pmNNE 5.1 8.0----29.85-- 90.5----
2024-06-12 06:36 pmNNE 7.0 8.9----29.85-- 90.5----
2024-06-12 06:30 pm N 5.1 7.0----29.84- 84.6 90.5----
2024-06-12 06:24 pm N 4.1 6.0----29.84- 84.6 90.5----
2024-06-12 06:00 pmENE 4.1 5.1----29.84-0.03- 90.3----
2024-06-12 05:54 pm NE 2.9 4.1----29.84-- 90.3----
2024-06-12 05:48 pmESE 4.1 5.1----29.85-- 90.3----
2024-06-12 05:42 pm SE 5.1 8.0----29.85-- 90.3----
2024-06-12 05:36 pm SE 8.0 9.9----29.85-- 90.3----
2024-06-12 05:30 pm SE 8.9 12.0----29.85- 82.0 90.5----
2024-06-12 05:24 pmSSE 9.9 15.9----29.86- 81.7 90.7----
2024-06-12 05:18 pmSSE 15.9 19.0----29.86-- 90.7----
2024-06-12 05:12 pm SE 12.0 13.0----29.87-- 90.7----
2024-06-12 05:06 pm SE 2.9 6.0----29.87-- 90.7----
2024-06-12 05:00 pm-------29.87-0.01- 90.9----
2024-06-12 04:54 pm-------29.88-- 90.9----
2024-06-12 04:48 pmWNW 6.0 12.0----29.88-- 91.0----
2024-06-12 04:42 pmWNW 9.9 14.0----29.88-- 91.0----
2024-06-12 04:36 pmWNW 13.0 17.1----29.89-- 91.2----
2024-06-12 04:30 pm-------29.89- 78.8 91.2----
2024-06-12 04:24 pm-------29.88- 79.9 91.4----
2024-06-12 04:18 pmNNW 7.0 14.0----29.88- 86.5 91.4----
2024-06-12 04:12 pm NE 5.1 6.0----29.88- 88.3 91.4----
2024-06-12 04:06 pmESE 6.0 8.0----29.87- 88.5 91.4----
2024-06-12 04:00 pmESE 5.1 7.0----29.87-0.03- 91.4----
2024-06-12 03:54 pm E 5.1 7.0----29.86-- 91.6----
2024-06-12 03:48 pm E 4.1 7.0----29.86-- 91.6----
2024-06-12 03:42 pm E 7.0 8.9----29.86-- 91.4----
2024-06-12 03:36 pm E 6.0 8.9----29.86-- 91.4----
2024-06-12 03:30 pm E 6.0 8.9----29.86- 88.2 91.4----
2024-06-12 03:24 pm E 8.0 12.0----29.86- 87.8 91.4----
2024-06-12 03:18 pm E 7.0 12.0----29.86- 86.9 91.4----
2024-06-12 03:12 pmENE 8.9 14.0----29.87- 87.1 91.4----
2024-06-12 03:06 pmENE 11.1 14.0----29.87- 88.0 91.2----
2024-06-12 03:00 pmESE 7.0 11.1----29.87-0.03- 91.2----
2024-06-12 02:54 pmESE 7.0 11.1----29.87-- 91.2----
2024-06-12 02:48 pmESE 4.1 7.0----29.88-- 91.0----
2024-06-12 02:42 pmESE 5.1 8.0----29.88-- 91.0----
2024-06-12 02:36 pm SE 6.0 8.0----29.88-- 90.9----
2024-06-12 02:30 pm E 6.0 8.0----29.88- 88.3 90.9----
2024-06-12 02:24 pmESE 5.1 8.9----29.88- 88.5 90.7----
2024-06-12 02:18 pm E 7.0 8.9----29.88- 88.2 90.7----
2024-06-12 02:12 pm E 6.0 8.0----29.88- 88.0 90.7----
2024-06-12 02:06 pmESE 7.0 8.9----29.88- 87.4 90.7----
2024-06-12 02:00 pm E 5.1 8.9----29.88-0.02 88.3 90.7----
2024-06-12 01:54 pm E 8.9 12.0----29.89- 87.6 90.5----
2024-06-12 01:48 pmESE 7.0 8.0----29.89-- 90.5----
2024-06-12 01:42 pmESE 7.0 8.9----29.89-- 90.1----
2024-06-12 01:36 pmSSE 6.0 8.9----29.89-- 90.1----
2024-06-12 01:30 pmSSE 7.0 8.9----29.89- 87.8 90.0----
2024-06-12 01:24 pm S 4.1 7.0----29.89- 88.0 90.0----
2024-06-12 01:18 pm S 5.1 6.0----29.89-- 90.0----
2024-06-12 01:12 pmSSE 2.9 4.1----29.90-- 89.8----
2024-06-12 01:06 pm E 5.1 9.9----29.90-- 89.8----
2024-06-12 01:00 pmSSE 8.0 8.9----29.89-0.01- 89.6----
2024-06-12 12:54 pmSSE 7.0 8.0----29.90-- 89.6----
2024-06-12 12:48 pm E 1.9 6.0----29.90-------
2024-06-12 12:42 pmSSE 2.9 8.0----29.90-------
2024-06-12 12:36 pmSSE 6.0 7.0----29.90-------
2024-06-12 12:30 pm E 1.9 6.0----29.90- 87.8 89.4----
2024-06-12 12:24 pmESE 5.1 6.0----29.90- 86.9 89.2----
2024-06-12 12:18 pm E 4.1 6.0----29.90-- 89.2----
2024-06-12 12:12 pmENE 4.1 7.0----29.90-- 89.2----
2024-06-12 12:06 pm E 5.1 7.0----29.91-- 89.2----
2024-06-12 12:00 pm-------29.90+0.00 86.4 89.2----
2024-06-12 11:54 am-------29.90- 85.3 89.1----
2024-06-12 11:48 am NE 6.0 7.0----29.90-- 89.1----
2024-06-12 11:42 am NE 7.0 8.9----29.91-- 89.1----
2024-06-12 11:36 amENE 6.0 8.0----29.91-- 89.1----
2024-06-12 11:30 amENE 4.1 8.0----29.91- 85.6-----
2024-06-12 11:24 amENE 6.0 8.9----29.91- 85.6-----
2024-06-12 11:18 am NE 6.0 8.0----29.91-------
2024-06-12 11:12 amENE 5.1 6.0----29.91-------
2024-06-12 11:06 amENE 4.1 6.0----29.90-------
2024-06-12 11:00 am-------29.90+0.03 84.0 88.9----
2024-06-12 10:54 am-------29.90- 84.2 88.9----
2024-06-12 10:48 amENE 2.9 8.0----29.90- 83.5 88.9----
2024-06-12 10:42 am NE 6.0 8.0----29.91- 83.1 88.9----
2024-06-12 10:36 amNNE 1.9 2.9----29.90- 84.9 88.9----
2024-06-12 10:30 amENE 1.9 1.9----29.90- 84.6 88.9----
2024-06-12 10:24 amENE 1.9 4.1----29.90- 84.0 88.9----
2024-06-12 10:18 am NE 4.1 6.0----29.90- 83.8 88.7----
2024-06-12 10:12 amNNE 2.9 4.1----29.90- 84.7 88.7----
2024-06-12 10:06 am NW 1.9 4.1----29.90- 85.3 88.7----
2024-06-12 10:00 amWNW 4.1 5.1----29.90+0.04- 88.7----
2024-06-12 09:54 am NW 4.1 5.1----29.91-- 88.7----
2024-06-12 09:48 amWNW 4.1 5.1----29.91-- 88.7----
2024-06-12 09:42 am W 4.1 5.1----29.90-- 88.5----
2024-06-12 09:36 amWNW 5.1 6.0----29.90-- 88.5----
2024-06-12 09:30 amWSW 2.9 4.1----29.90- 85.6 88.5----
2024-06-12 09:24 amWSW 2.9 5.1----29.90- 85.5 88.5----
2024-06-12 09:18 amWSW 6.0 7.0----29.90-- 88.5----
2024-06-12 09:12 amWSW 5.1 6.0----29.90-- 88.3----
2024-06-12 09:06 amWSW 5.1 5.1----29.90-- 88.3----
2024-06-12 09:00 am SW 4.1 5.1----29.90+0.05 85.8 88.3----
2024-06-12 08:54 amWSW 4.1 5.1----29.89- 86.0 88.2----
2024-06-12 08:48 am W 2.9 4.1----29.89-- 88.2----
2024-06-12 08:42 am NW 1.0 1.9----29.89-- 88.2----
2024-06-12 08:36 am- 0.0 1.0----29.89-- 88.2----
2024-06-12 08:30 am- 0.0 1.0----29.88- 85.8 88.0----
2024-06-12 08:24 am NW 1.0 1.9----29.88- 84.7 88.0----
2024-06-12 08:18 am NW 1.9 2.9----29.88- 83.5 88.0----
2024-06-12 08:12 am N 1.9 2.9----29.88- 83.3 88.0----
2024-06-12 08:06 am N 1.9 2.9----29.88- 82.9 88.0----
2024-06-12 08:00 am N 1.0 1.9----29.87+0.03 83.3 88.0----
2024-06-12 07:54 am- 0.0 1.9----29.87- 82.6 88.0----
2024-06-12 07:48 am N 1.9 2.9----29.87- 82.0 88.0----
2024-06-12 07:42 am N 2.9 5.1----29.87- 81.5 88.0----
2024-06-12 07:36 amNNW 4.1 5.1----29.87- 81.7 88.0----
2024-06-12 07:30 am N 4.1 5.1----29.87- 81.9 88.0----
2024-06-12 07:24 amNNW 2.9 2.9----29.86- 81.3 88.0----
2024-06-12 07:18 am E 4.1 7.0----29.86- 82.8 88.0----
2024-06-12 07:12 am SE 5.1 6.0----29.86- 82.6 88.0----
2024-06-12 07:06 am SE 4.1 6.0----29.86- 82.4 88.0----
2024-06-12 07:00 amESE 6.0 7.0----29.86+0.02 82.8 88.0----
2024-06-12 06:54 am E 2.9 5.1----29.86- 81.1 88.0----
2024-06-12 06:48 amENE 2.9 4.1----29.86-- 88.2----
2024-06-12 06:42 am NE 2.9 4.1----29.86-- 88.2----
2024-06-12 06:36 am NE 2.9 4.1----29.85-- 88.2----
2024-06-12 06:30 amNNE 1.9 2.9----29.85- 79.7 88.2----
2024-06-12 06:24 am N 2.9 4.1----29.85- 79.3 88.2----
2024-06-12 06:18 amNNE 1.9 2.9----29.85- 79.3 88.2----
2024-06-12 06:12 am N 2.9 2.9----29.85- 79.3 88.3----
2024-06-12 06:06 amNNE 2.9 4.1----29.85- 79.5 88.3----
2024-06-12 06:00 am N 2.9 4.1----29.85+0.01 79.7 88.3----
2024-06-12 05:54 am N 1.9 1.9----29.85- 80.6 88.3----
2024-06-12 05:48 am N 1.0 1.9----29.85-- 88.3----
2024-06-12 05:42 am N 1.9 2.9----29.85-- 88.5----
2024-06-12 05:36 amNNE 2.9 2.9----29.85-- 88.5----
2024-06-12 05:30 amENE 1.9 2.9----29.85- 81.9 88.5----
2024-06-12 05:24 am NE 1.0 1.9----29.85- 81.3 88.5----
2024-06-12 05:18 am NE 1.9 2.9----29.85-- 88.5----
2024-06-12 05:12 am NE 1.9 1.9----29.84-- 88.5----
2024-06-12 05:06 amENE 1.0 1.9----29.84-- 88.7----
2024-06-12 05:00 amENE 1.9 2.9----29.84+0.00 81.7 88.7----
2024-06-12 04:54 amENE 1.9 2.9----29.84- 81.9 88.7----
2024-06-12 04:48 am E 2.9 4.1----29.83-- 88.7----
2024-06-12 04:42 am E 2.9 4.1----29.83-- 88.7----
2024-06-12 04:36 am E 4.1 5.1----29.83-- 88.7----
2024-06-12 04:30 am E 2.9 5.1----29.83- 82.8 88.9----
2024-06-12 04:24 amESE 4.1 5.1----29.83- 83.7 88.9----
2024-06-12 04:18 am SE 5.1 6.0----29.83- 84.2 88.9----
2024-06-12 04:12 am SE 4.1 5.1----29.84- 84.2 88.9----
2024-06-12 04:06 amESE 4.1 5.1----29.84- 84.2 88.9----
2024-06-12 04:00 am SE 5.1 5.1----29.84+0.00- 89.1----
2024-06-12 03:54 am SE 4.1 5.1----29.83-- 89.1----
2024-06-12 03:48 amESE 1.9 4.1----29.84-- 89.1----
2024-06-12 03:42 amESE 5.1 6.0----29.84-- 89.2----
2024-06-12 03:36 amESE 1.0 2.9----29.84-- 89.2----
2024-06-12 03:30 amESE 1.9 2.9----29.84- 82.9 89.2----
2024-06-12 03:24 am E 1.9 2.9----29.83- 82.8 89.2----
2024-06-12 03:18 am E 1.9 4.1----29.83- 82.8 89.2----
2024-06-12 03:12 am E 2.9 4.1----29.83- 82.9 89.2----
2024-06-12 03:06 am E 1.9 4.1----29.83- 83.1 89.2----
2024-06-12 03:00 amESE 4.1 6.0----29.83+0.00- 89.2----
2024-06-12 02:54 am E 4.1 5.1----29.83-- 89.2----
2024-06-12 02:48 am E 2.9 5.1----29.84- 83.3 89.2----
2024-06-12 02:42 am E 2.9 5.1----29.84- 83.3 89.2----
2024-06-12 02:36 amESE 4.1 6.0----29.84- 83.8 89.2----
2024-06-12 02:30 am E 4.1 5.1----29.84- 83.1 89.4----
2024-06-12 02:24 am E 2.9 5.1----29.84- 82.9 89.4----
2024-06-12 02:18 am E 2.9 5.1----29.84- 83.3 89.4----
2024-06-12 02:12 am E 4.1 6.0----29.84- 84.0 89.4----
2024-06-12 02:06 amESE 5.1 5.1----29.84- 84.4 89.4----
2024-06-12 02:00 amESE 4.1 5.1----29.84+0.01 84.4 89.6----
2024-06-12 01:54 amESE 5.1 6.0----29.84- 84.4 89.6----
2024-06-12 01:48 amESE 4.1 6.0----29.84- 84.4 89.6----
2024-06-12 01:42 amESE 5.1 6.0----29.84- 84.4 89.6----
2024-06-12 01:36 amESE 5.1 6.0----29.84- 84.7 89.6----
2024-06-12 01:30 amESE 5.1 7.0----29.84-- 89.6----
2024-06-12 01:24 amESE 6.0 8.9----29.84-- 89.8----
2024-06-12 01:18 amESE 7.0 8.9----29.83- 84.7 89.8----
2024-06-12 01:12 amESE 7.0 9.9----29.83- 84.6 89.8----
2024-06-12 01:06 amESE 8.0 8.9----29.83- 84.6 89.8----
2024-06-12 01:00 amESE 7.0 8.9----29.83+0.01 84.6 89.8----
2024-06-12 12:54 amESE 6.0 8.0----29.84- 84.6 89.8----
2024-06-12 12:48 amESE 6.0 7.0----29.84-- 89.8----
2024-06-12 12:42 amESE 5.1 7.0----29.85-- 89.8----
2024-06-12 12:36 am SE 5.1 6.0----29.85-- 89.8----
2024-06-12 12:30 am SE 5.1 6.0----29.85-- 90.0----
2024-06-12 12:24 am SE 4.1 6.0----29.85-- 90.0----
2024-06-12 12:18 am-------29.84- 85.3 90.0----
2024-06-12 12:12 am-------29.84- 85.3 90.0----
2024-06-12 12:06 am-------29.84- 85.5 90.0----
2024-06-12 12:00 amESE 5.1 7.0----29.84+0.01 85.3 90.0----
2024-06-11 11:54 pmESE 6.0 8.0----29.84- 85.3 90.0----